{"data":{"norad_id":64906,"epoch":"2026-09-20T10:45:05.101344Z","epoch_age_seconds":128678,"freshness":"FRESH","line1":"1 64906U 25157C   26263.44797571  .00015896  00000+0  48050-3 0  9996","line2":"2 64906  53.1569 158.0971 0001584  89.2229 270.8955 15.34406363 65931","mean_motion":15.34406363,"eccentricity":0.0001584,"inclination_deg":53.1569,"raan_deg":158.0971,"arg_perigee_deg":89.2229,"mean_anomaly_deg":270.8955,"bstar":0.0004805,"rev_number":6593,"period_min":93.847368905886,"perigee_km":461.60074199715,"apogee_km":463.76791419389,"semimajor_km":6840.8213280955,"source":"CELESTRAK","updated_at":"2026-09-21T09:00:35.453947Z"}}